TimeAKDT,TemperatureF,Dew PointF,Humidity,Sea Level PressureIn,VisibilityMPH,Wind Direction,Wind SpeedMPH,Gust SpeedMPH,PrecipitationIn,Events,Conditions,WindDirDegrees,DateUTC
12:53 AM,35.1,21.9,59,29.76,10.0,ESE,18.4,-,N/A,,Overcast,120,2012-10-31 08:53:00
1:53 AM,36.0,19.0,50,29.74,10.0,ESE,17.3,24.2,N/A,,Overcast,120,2012-10-31 09:53:00
2:53 AM,37.0,17.1,44,29.71,10.0,ESE,18.4,27.6,N/A,,Overcast,120,2012-10-31 10:53:00
3:53 AM,36.0,21.9,57,29.70,10.0,ESE,20.7,-,0.00,Snow,Light Snow,110,2012-10-31 11:53:00
4:53 AM,35.1,23.0,61,29.68,10.0,ESE,21.9,-,0.00,,Overcast,120,2012-10-31 12:53:00
5:53 AM,35.1,21.9,59,29.67,10.0,ESE,24.2,29.9,N/A,,Overcast,120,2012-10-31 13:53:00
6:53 AM,35.1,23.0,61,29.66,10.0,East,19.6,-,N/A,,Overcast,100,2012-10-31 14:53:00
7:53 AM,35.1,21.9,59,29.66,10.0,ESE,21.9,28.8,N/A,,Overcast,110,2012-10-31 15:53:00
8:53 AM,35.1,23.0,61,29.68,9.0,ESE,16.1,-,0.00,Snow,Light Snow,110,2012-10-31 16:53:00
9:53 AM,35.1,23.0,61,29.68,10.0,East,18.4,-,0.00,,Overcast,100,2012-10-31 17:53:00
10:53 AM,36.0,23.0,59,29.69,8.0,East,16.1,-,0.00,Snow,Light Snow,100,2012-10-31 18:53:00
11:53 AM,36.0,26.1,67,29.70,7.0,East,12.7,-,0.00,Snow,Light Snow,90,2012-10-31 19:53:00
12:53 PM,37.0,25.0,62,29.68,10.0,ESE,12.7,-,0.00,,Overcast,110,2012-10-31 20:53:00
1:53 PM,36.0,27.0,70,29.69,5.0,ESE,16.1,-,0.00,Snow,Light Snow,120,2012-10-31 21:53:00
2:53 PM,35.1,28.0,76,29.68,7.0,ESE,15.0,-,0.00,Snow,Light Snow,110,2012-10-31 22:53:00
3:53 PM,34.0,28.9,82,29.69,9.0,ESE,16.1,-,0.01,Snow,Light Snow,110,2012-10-31 23:53:00
4:53 PM,34.0,30.0,85,29.69,9.0,East,9.2,-,0.00,Snow,Light Snow,80,2012-11-01 00:53:00
5:53 PM,33.1,30.0,89,29.69,3.0,East,10.4,-,0.00,Snow,Light Snow,80,2012-11-01 01:53:00
6:14 PM,33.8,30.2,87,29.69,6.0,East,9.2,-,0.00,Snow,Light Snow,80,2012-11-01 02:14:00
6:53 PM,35.1,28.9,78,29.69,9.0,ENE,9.2,-,0.00,,Overcast,70,2012-11-01 02:53:00
7:53 PM,35.1,28.9,78,29.70,10.0,East,10.4,-,N/A,,Overcast,80,2012-11-01 03:53:00
8:53 PM,35.1,30.0,82,29.73,10.0,East,6.9,-,0.00,Snow,Light Snow,100,2012-11-01 04:53:00
9:53 PM,35.1,30.0,82,29.73,10.0,East,9.2,-,0.00,,Overcast,80,2012-11-01 05:53:00
10:53 PM,36.0,28.9,76,29.74,10.0,East,10.4,-,N/A,,Overcast,80,2012-11-01 06:53:00
11:53 PM,36.0,28.9,76,29.75,10.0,East,10.4,-,0.00,Snow,Light Snow,90,2012-11-01 07:53:00